Content
SEND FEEDBACK

Daily
Averages
Monthly
Summary
United States of America

NEW CUMBERLAND, WEST VIRGINIA


Home > North America > United States > West Virginia
Elevation: 900 feet     Latitude: 40 30N     Longitude: 080 36W

WEATHER
 
SELECT A DAY
Number of Records: 197,802;   Date Range: 1/1/95 - 8/30/14
 
SHARE

PRINT THIS DATA

[ ← Previous Day ]
WEATHER ALMANAC - JANUARY 23, 2013
[ Next Day → ]
[ °C ]   °F
Weather ElementAverageHighLow
Temperature10.6 °F15.8 °F (2:51 pm)3.9 °F (3:51 am)
Dewpoint0.4 °F9 °F (9:51 pm)-2.9 °F (2:51 am)
Humidity64.3 %80 % (9:51 pm)45 % (2:51 pm)
Barometer30.26 in30.36 in (9:51 am)30.12 in (11:51 pm)
Wind Speed5.6 mph17.3 mph (12:51 pm)
Wind Gust20.7 mph (12:51 pm)
Weather ElementAverage
Visibility9 mi
Wind DirectionSSW (193.9 °)

Weather ElementTotal
Precipitation---
Heating Degree Days55.2 (Base 65)
Averaged from 23 records on January 23, 2013
WEATHER CONDITIONS BREAKOUT
WIND DIRECTION BREAKOUT
WEATHER BY HOUR - JANUARY 23, 2013
[ °C ]   °F
Local TimeTemperatureDewpointHumidityBarometerVisibilityWind DirectionWind SpeedGust SpeedPrecipitationEventsConditions
1:51 AM5.0 °F-2.0 °F73 %30.32 in10.0 miWSW (250°)4.6 mphScattered Clouds
2:51 AM5.0 °F-2.9 °F70 %30.33 in10.0 miWest (260°)4.6 mphClear
3:51 AM3.9 °F-2.9 °F73 %30.32 in10.0 miWSW (240°)4.6 mphClear
4:51 AM3.9 °F-2.9 °F73 %30.32 in10.0 miWSW (250°)3.5 mphScattered Clouds
5:51 AM3.9 °F-2.9 °F73 %30.33 in10.0 miWSW (240°)4.6 mphPartly Cloudy
6:51 AM3.9 °F-2.9 °F73 %30.34 in10.0 miWSW (240°)4.6 mphPartly Cloudy
7:51 AM3.9 °F-2.9 °F73 %30.34 in10.0 miWSW (240°)4.6 mphScattered Clouds
8:51 AM7.0 °F-2.0 °F67 %30.35 in10.0 miWSW (250°)4.6 mphScattered Clouds
9:51 AM10.0 °F-0.9 °F61 %30.36 in10.0 miWest (280°)8.1 mphOvercast
10:51 AM10.9 °F-2.0 °F56 %30.34 in10.0 miWSW (240°)11.5 mph17.3 mphOvercast
11:51 AM12.0 °F-0.9 °F56 %30.32 in10.0 miWest (260°)12.7 mphOvercast
12:51 PM14.0 °F-0.9 °F52 %30.28 in10.0 miWest (280°)17.3 mph20.7 mphOvercast
1:51 PM14.0 °F-2.0 °F49 %30.26 in10.0 miWest (270°)12.7 mph19.6 mphOvercast
2:51 PM15.8 °F-2.2 °F45 %30.15 in10.0 miWSW (240°)10.4 mphOvercast
3:51 PM15.1 °F-0.9 °F49 %30.23 in10.0 miSW (230°)5.8 mphOvercast
4:51 PM15.1 °F-0.9 °F49 %30.22 in10.0 miWest (260°)6.9 mphOvercast
5:51 PM15.1 °F0.0 °F51 %30.20 in9.0 miSW (220°)3.5 mph0.00 inSnowLight Snow
6:51 PM15.1 °F3.0 °F59 %30.19 in9.0 miCalm0.00 inSnowLight Snow
7:51 PM15.1 °F5.0 °F64 %30.18 in5.0 miSSW (210°)4.6 mph0.00 inSnowLight Snow
8:51 PM14.0 °F7.0 °F74 %30.17 in8.0 miCalm0.00 inSnowLight Snow
9:51 PM14.0 °F9.0 °F80 %30.16 in6.0 miCalm0.00 inSnowLight Snow
10:51 PM14.0 °F9.0 °F80 %30.13 in6.0 miCalm0.00 inSnowLight Snow
11:51 PM14.0 °F9.0 °F80 %30.12 in5.0 miCalm0.00 inSnowLight Snow
Hourly data recorded from KPIT, located miles away from New Cumberland, West Virginia







STORIES FROM OUR PARTNERS